Location: Burgwalden
(48.2830°N, 10.7576°E)
Time: 01:54:58
(UTC+00:00)

COSMO-SKYMED 1 - Pass Details

Date: 26 September 2023
Orbit: 621 x 623 km, 97.9° (Epoch: 04 December)

Event Time Altitude Azimuth Distance (km) Brightness Sun altitude
Rises 03:48:19 0° 147° (SSE) 2,893 6.3 -14.0°
Reaches altitude 10° 03:50:34 10° 140° (SE) 1,991 5.5 -13.7°
Maximum altitude 03:54:40 43° 69° (ENE) 883 3.9 -13.0°
Drops below altitude 10° 03:58:48 10° 359° (N) 2,008 5.3 -12.4°
Sets 04:01:04 0° 353° (N) 2,920 6.1 -12.0°
